| time (UTC) | temp F | wind direction | speed knots | gust knots | rain 1hr in | rain 24hr in | rain mn in | humidity % | barometer mb |
| 20260509042512 | 48 | 331 | 10.4 | 16.5 | 0.00 | 0.00 | 0.00 | 87 | 1003.8 |
| 20260509042014 | 49 | 321 | 8.7 | 18.2 | 0.00 | 0.00 | 0.00 | 86 | 1003.9 |
| 20260509041508 | 49 | 323 | 10.4 | 22.6 | 0.00 | 0.00 | 0.00 | 85 | 1003.9 |
| 20260509041007 | 50 | 341 | 10.4 | 22.6 | 0.00 | 0.00 | 0.00 | 84 | 1003.8 |
| 20260509040508 | 50 | 346 | 11.3 | 19.1 | 0.00 | 0.00 | 0.00 | 85 | 1003.8 |
| 20260509040008 | 50 | 355 | 9.6 | 15.6 | 0.00 | 0.00 | 0.00 | 86 | 1003.5 |
| 20260509035508 | 50 | 338 | 8.7 | 18.2 | 0.00 | 0.00 | 0.00 | 86 | 1003.4 |
| 20260509035008 | 50 | 355 | 8.7 | 18.2 | 0.00 | 0.00 | 0.00 | 86 | 1003.5 |
| 20260509034507 | 50 | 344 | 7.8 | 18.2 | 0.00 | 0.00 | 0.00 | 85 | 1003.5 |
| 20260509034006 | 51 | 323 | 10.4 | 24.3 | 0.00 | 0.00 | 0.00 | 84 | 1003.6 |
| 20260509033506 | 51 | 348 | 11.3 | 24.3 | 0.00 | 0.00 | 0.00 | 82 | 1003.6 |
| 20260509033005 | 53 | 355 | 11.3 | 20.0 | 0.00 | 0.00 | 0.00 | 80 | 1003.7 |
| 20260509032504 | 54 | 331 | 11.3 | 18.2 | 0.00 | 0.00 | 0.00 | 75 | 1003.5 |
| 20260509032002 | 55 | 276 | 9.6 | 18.2 | 0.00 | 0.00 | 0.00 | 73 | 1003.1 |
| 20260509031502 | 56 | 340 | 6.1 | 21.7 | 0.00 | 0.00 | 0.00 | 69 | 1002.8 |
| 20260509031104 | 57 | 278 | 10.4 | 21.7 | 0.00 | 0.00 | 0.00 | 66 | 1002.7 |
| 20260509030600 | 59 | 287 | 8.7 | 19.1 | 0.00 | 0.00 | 0.00 | 60 | 1002.4 |
| 20260509030101 | 60 | 296 | 8.7 | 19.1 | 0.00 | 0.00 | 0.00 | 52 | 1002.2 |
| 20260509025604 | 61 | 308 | 4.3 | 9.6 | 0.00 | 0.00 | 0.00 | 49 | 1001.8 |
| 20260509025058 | 61 | 304 | 3.5 | 8.7 | 0.00 | 0.00 | 0.00 | 47 | 1001.5 |
| 20260509024600 | 61 | 317 | 0.9 | 4.3 | 0.00 | 0.00 | 0.00 | 46 | 1000.9 |
| 20260509024057 | 61 | 279 | 2.6 | 4.3 | 0.00 | 0.00 | 0.00 | 45 | 1000.8 |
| 20260509023558 | 61 | 307 | 0.0 | 0.9 | 0.00 | 0.00 | 0.00 | 44 | 1000.5 |
| 20260509023109 | 61 | 307 | 0.0 | 0.0 | 0.00 | 0.00 | 0.00 | 44 | 1000.3 |
| 20260509022600 | 61 | 307 | 0.0 | 0.0 | 0.00 | 0.00 | 0.00 | 43 | 1000.1 |
| 20260509022056 | 61 | 307 | 0.0 | 0.9 | 0.00 | 0.00 | 0.00 | 43 | 1000.1 |
| 20260509021555 | 61 | 307 | 0.0 | 0.9 | 0.00 | 0.00 | 0.00 | 43 | 1000.2 |
| 20260509021054 | 61 | 307 | 0.0 | 0.9 | 0.00 | 0.00 | 0.00 | 42 | 1000.4 |
| 20260509020553 | 61 | 307 | 0.0 | 3.5 | 0.00 | 0.00 | 0.00 | 42 | 1000.4 |
| 20260509020059 | 61 | 307 | 0.0 | 3.5 | 0.00 | 0.00 | 0.00 | 42 | 1000.5 |
| 20260509015553 | 61 | 293 | 0.9 | 2.6 | 0.00 | 0.00 | 0.00 | 42 | 1000.7 |
| 20260509015055 | 62 | 292 | 0.0 | 2.6 | 0.00 | 0.00 | 0.00 | 42 | 1000.7 |
| 20260509014553 | 62 | 296 | 0.0 | 5.2 | 0.00 | 0.00 | 0.00 | 41 | 1000.8 |
| 20260509014051 | 62 | 296 | 0.9 | 7.0 | 0.00 | 0.00 | 0.00 | 40 | 1000.8 |
| 20260509013551 | 62 | 297 | 0.9 | 7.0 | 0.00 | 0.00 | 0.00 | 40 | 1000.9 |
| 20260509013055 | 63 | 317 | 0.9 | 8.7 | 0.00 | 0.00 | 0.00 | 40 | 1000.9 |
| 20260509012550 | 63 | 295 | 2.6 | 8.7 | 0.00 | 0.00 | 0.00 | 40 | 1000.9 |
| 20260509012050 | 63 | 338 | 2.6 | 8.7 | 0.00 | 0.00 | 0.00 | 39 | 1001.0 |
| 20260509011556 | 63 | 313 | 3.5 | 8.7 | 0.00 | 0.00 | 0.00 | 39 | 1001.0 |
| 20260509011049 | 64 | 284 | 2.6 | 12.2 | 0.00 | 0.00 | 0.00 | 39 | 1001.1 |
| 20260509010549 | 64 | 309 | 6.1 | 12.2 | 0.00 | 0.00 | 0.00 | 38 | 1001.0 |
| 20260509010052 | 64 | 331 | 5.2 | 15.6 | 0.00 | 0.00 | 0.00 | 38 | 1001.0 |
| 20260509005549 | 64 | 247 | 7.8 | 15.6 | 0.00 | 0.00 | 0.00 | 37 | 1001.0 |
| 20260509005047 | 65 | 324 | 7.8 | 13.9 | 0.00 | 0.00 | 0.00 | 37 | 1001.1 |
| 20260509004547 | 65 | 304 | 8.7 | 13.9 | 0.00 | 0.00 | 0.00 | 38 | 1001.2 |
| 20260509004048 | 65 | 320 | 4.3 | 13.9 | 0.00 | 0.00 | 0.00 | 38 | 1001.4 |
| 20260509003548 | 65 | 325 | 6.1 | 13.9 | 0.00 | 0.00 | 0.00 | 37 | 1001.4 |
| 20260509003047 | 65 | 329 | 6.1 | 10.4 | 0.00 | 0.00 | 0.00 | 37 | 1001.4 |
| 20260509002546 | 65 | 281 | 5.2 | 13.9 | 0.00 | 0.00 | 0.00 | 37 | 1001.4 |
| 20260509002046 | 65 | 318 | 6.1 | 13.9 | 0.00 | 0.00 | 0.00 | 37 | 1001.5 |
| 20260509001546 | 66 | 346 | 7.8 | 13.9 | 0.00 | 0.00 | 0.00 | 36 | 1001.5 |
| 20260509001046 | 66 | 281 | 6.1 | 14.8 | 0.00 | 0.00 | 0.00 | 36 | 1001.4 |
| 20260509000546 | 66 | 315 | 7.8 | 16.5 | 0.00 | 0.00 | 0.00 | 35 | 1001.6 |
| 20260509000044 | 66 | 292 | 6.1 | 18.2 | 0.00 | 0.00 | 0.00 | 36 | 1001.5 |
| 20260508235544 | 66 | 302 | 10.4 | 18.2 | 0.00 | 0.00 | 0.00 | 35 | 1001.5 |
| 20260508235043 | 66 | 337 | 9.6 | 18.2 | 0.00 | 0.00 | 0.00 | 35 | 1001.6 |
| 20260508234543 | 66 | 346 | 5.2 | 18.2 | 0.00 | 0.00 | 0.00 | 35 | 1001.6 |
| 20260508234046 | 66 | 290 | 8.7 | 18.2 | 0.00 | 0.00 | 0.00 | 35 | 1001.6 |
| 20260508233542 | 66 | 275 | 8.7 | 16.5 | 0.00 | 0.00 | 0.00 | 34 | 1001.7 |
| 20260508233042 | 66 | 261 | 4.3 | 15.6 | 0.00 | 0.00 | 0.00 | 35 | 1001.8 |
| 20260508232540 | 66 | 315 | 4.3 | 26.1 | 0.00 | 0.00 | 0.00 | 35 | 1001.9 |
| 20260508232040 | 66 | 327 | 8.7 | 26.1 | 0.00 | 0.00 | 0.00 | 35 | 1002.0 |
| 20260508231540 | 66 | 306 | 7.8 | 16.5 | 0.00 | 0.00 | 0.00 | 34 | 1002.1 |
| 20260508231039 | 66 | 329 | 7.8 | 16.5 | 0.00 | 0.00 | 0.00 | 34 | 1002.0 |
| 20260508230538 | 66 | 261 | 7.8 | 17.4 | 0.00 | 0.00 | 0.00 | 34 | 1002.1 |
| 20260508230043 | 65 | 254 | 8.7 | 17.4 | 0.00 | 0.00 | 0.00 | 35 | 1002.1 |
| 20260508225538 | 65 | 325 | 7.8 | 15.6 | 0.00 | 0.00 | 0.00 | 35 | 1002.3 |
| 20260508225038 | 66 | 314 | 5.2 | 14.8 | 0.00 | 0.00 | 0.00 | 34 | 1002.3 |
| 20260508224538 | 66 | 355 | 4.3 | 18.2 | 0.00 | 0.00 | 0.00 | 34 | 1002.3 |
| 20260508224038 | 66 | 319 | 8.7 | 18.2 | 0.00 | 0.00 | 0.00 | 34 | 1002.3 |
| 20260508223537 | 66 | 227 | 7.0 | 17.4 | 0.00 | 0.00 | 0.00 | 34 | 1002.3 |
| 20260508223036 | 66 | 329 | 8.7 | 20.9 | 0.00 | 0.00 | 0.00 | 34 | 1002.5 |
| 20260508222535 | 66 | 298 | 7.0 | 21.7 | 0.00 | 0.00 | 0.00 | 33 | 1002.4 |
| 20260508222035 | 66 | 274 | 13.9 | 21.7 | 0.00 | 0.00 | 0.00 | 33 | 1002.7 |
| 20260508221535 | 65 | 328 | 9.6 | 19.1 | 0.00 | 0.00 | 0.00 | 33 | 1002.6 |
| 20260508221034 | 65 | 296 | 6.1 | 20.0 | 0.00 | 0.00 | 0.00 | 33 | 1002.7 |
| 20260508220533 | 65 | 338 | 10.4 | 20.0 | 0.00 | 0.00 | 0.00 | 34 | 1002.7 |
| 20260508220034 | 64 | 336 | 7.0 | 20.0 | 0.00 | 0.00 | 0.00 | 34 | 1002.8 |
| 20260508215534 | 64 | 284 | 10.4 | 20.0 | 0.00 | 0.00 | 0.00 | 33 | 1002.9 |
| 20260508215034 | 66 | 263 | 7.8 | 20.0 | 0.00 | 0.00 | 0.00 | 32 | 1002.9 |
| 20260508214535 | 65 | 323 | 11.3 | 20.0 | 0.00 | 0.00 | 0.00 | 32 | 1003.0 |
| 20260508214033 | 65 | 272 | 8.7 | 20.9 | 0.00 | 0.00 | 0.00 | 33 | 1003.0 |
| 20260508213533 | 65 | 279 | 10.4 | 20.9 | 0.00 | 0.00 | 0.00 | 32 | 1003.1 |
| 20260508213039 | 65 | 253 | 9.6 | 21.7 | 0.00 | 0.00 | 0.00 | 32 | 1003.0 |
| 20260508212535 | 66 | 26 | 12.2 | 21.7 | 0.00 | 0.00 | 0.00 | 31 | 1003.0 |
| 20260508212032 | 66 | 315 | 9.6 | 20.9 | 0.00 | 0.00 | 0.00 | 33 | 1003.0 |
| 20260508211537 | 66 | 5 | 11.3 | 20.9 | 0.00 | 0.00 | 0.00 | 32 | 1003.0 |
| 20260508211034 | 66 | 213 | 10.4 | 22.6 | 0.00 | 0.00 | 0.00 | 32 | 1002.9 |
| 20260508210532 | 66 | 272 | 12.2 | 22.6 | 0.00 | 0.00 | 0.00 | 32 | 1003.0 |
| 20260508210031 | 66 | 325 | 13.0 | 21.7 | 0.00 | 0.00 | 0.00 | 32 | 1002.9 |
| 20260508205530 | 66 | 278 | 9.6 | 20.9 | 0.00 | 0.00 | 0.00 | 31 | 1003.0 |
| 20260508205030 | 66 | 327 | 9.6 | 20.9 | 0.00 | 0.00 | 0.00 | 32 | 1002.8 |
| 20260508204531 | 66 | 346 | 9.6 | 20.0 | 0.00 | 0.00 | 0.00 | 32 | 1002.8 |
| 20260508204032 | 66 | 325 | 8.7 | 25.2 | 0.00 | 0.00 | 0.00 | 31 | 1002.9 |
| 20260508203529 | 66 | 336 | 13.0 | 25.2 | 0.00 | 0.00 | 0.00 | 31 | 1002.9 |
| 20260508203035 | 66 | 323 | 13.9 | 25.2 | 0.00 | 0.00 | 0.00 | 33 | 1002.9 |
| 20260508202531 | 66 | 320 | 13.0 | 26.9 | 0.00 | 0.00 | 0.00 | 32 | 1002.9 |
| 20260508202029 | 66 | 355 | 15.6 | 26.9 | 0.00 | 0.00 | 0.00 | 32 | 1002.8 |
| 20260508201529 | 66 | 284 | 13.0 | 23.5 | 0.00 | 0.00 | 0.00 | 32 | 1002.8 |
| 20260508201028 | 66 | 321 | 13.0 | 24.3 | 0.00 | 0.00 | 0.00 | 31 | 1002.8 |
| 20260508200528 | 66 | 329 | 10.4 | 24.3 | 0.00 | 0.00 | 0.00 | 32 | 1002.8 |
| 20260508200117 | 66 | 311 | 13.0 | 20.9 | 0.00 | 0.00 | 0.00 | 32 | 1002.8 |
| 20260508195022 | 66 | 310 | 13.9 | 26.1 | 0.00 | 0.00 | 0.00 | 31 | 1002.8 |
| 20260508194530 | 66 | 296 | 13.0 | 29.5 | 0.00 | 0.00 | 0.00 | 32 | 1002.7 |
| 20260508194020 | 66 | 294 | 15.6 | 29.5 | 0.00 | 0.00 | 0.00 | 32 | 1002.7 |
| 20260508193520 | 66 | 290 | 6.1 | 22.6 | 0.00 | 0.00 | 0.00 | 32 | 1002.7 |
| 20260508193019 | 66 | 334 | 12.2 | 30.4 | 0.00 | 0.00 | 0.00 | 32 | 1002.7 |
| 20260508192521 | 66 | 290 | 9.6 | 30.4 | 0.00 | 0.00 | 0.00 | 31 | 1002.8 |
| 20260508192020 | 66 | 315 | 10.4 | 22.6 | 0.00 | 0.00 | 0.00 | 34 | 1002.6 |
| 20260508191526 | 66 | 312 | 11.3 | 22.6 | 0.00 | 0.00 | 0.00 | 34 | 1002.8 |
| 20260508191018 | 66 | 221 | 7.0 | 20.9 | 0.00 | 0.00 | 0.00 | 34 | 1002.7 |
| 20260508190518 | 65 | 231 | 9.6 | 25.2 | 0.00 | 0.00 | 0.00 | 34 | 1002.8 |
| 20260508190018 | 66 | 157 | 11.3 | 25.2 | 0.00 | 0.00 | 0.00 | 34 | 1002.7 |
| 20260508185517 | 66 | 342 | 11.3 | 24.3 | 0.00 | 0.00 | 0.00 | 33 | 1002.7 |
| 20260508185019 | 66 | 319 | 10.4 | 18.2 | 0.00 | 0.00 | 0.00 | 34 | 1002.6 |
| 20260508184518 | 67 | 334 | 10.4 | 19.1 | 0.00 | 0.00 | 0.00 | 32 | 1002.7 |
| 20260508184016 | 67 | 348 | 7.0 | 19.1 | 0.00 | 0.00 | 0.00 | 30 | 1002.5 |
| 20260508183517 | 67 | 278 | 8.7 | 25.2 | 0.00 | 0.00 | 0.00 | 29 | 1002.5 |
| 20260508183023 | 67 | 338 | 9.6 | 25.2 | 0.00 | 0.00 | 0.00 | 28 | 1002.4 |
| 20260508182517 | 67 | 297 | 7.8 | 24.3 | 0.00 | 0.00 | 0.00 | 28 | 1002.5 |
| 20260508182015 | 67 | 308 | 9.6 | 24.3 | 0.00 | 0.00 | 0.00 | 28 | 1002.5 |
| 20260508181514 | 67 | 260 | 6.1 | 18.2 | 0.00 | 0.00 | 0.00 | 28 | 1002.4 |
| 20260508181017 | 68 | 248 | 8.7 | 20.9 | 0.00 | 0.00 | 0.00 | 26 | 1002.5 |
| 20260508180514 | 67 | 302 | 7.8 | 20.9 | 0.00 | 0.00 | 0.00 | 28 | 1002.5 |
| 20260508180015 | 67 | 299 | 7.0 | 14.8 | 0.00 | 0.00 | 0.00 | 29 | 1002.5 |
| 20260508175512 | 67 | 294 | 7.0 | 15.6 | 0.00 | 0.00 | 0.00 | 27 | 1002.7 |
| 20260508175022 | 67 | 355 | 7.0 | 22.6 | 0.00 | 0.00 | 0.00 | 27 | 1002.7 |
| 20260508174513 | 67 | 259 | 10.4 | 22.6 | 0.00 | 0.00 | 0.00 | 28 | 1002.8 |
| 20260508174010 | 66 | 335 | 10.4 | 18.2 | 0.00 | 0.00 | 0.00 | 26 | 1002.8 |
| 20260508173509 | 67 | 276 | 7.8 | 14.8 | 0.00 | 0.00 | 0.00 | 26 | 1002.8 |
| 20260508173008 | 67 | 268 | 7.0 | 14.8 | 0.00 | 0.00 | 0.00 | 26 | 1002.9 |
| 20260508172512 | 66 | 268 | 5.2 | 14.8 | 0.00 | 0.00 | 0.00 | 28 | 1002.9 |
| 20260508172008 | 66 | 275 | 7.0 | 14.8 | 0.00 | 0.00 | 0.00 | 26 | 1003.1 |
| 20260508171506 | 66 | 266 | 4.3 | 11.3 | 0.00 | 0.00 | 0.00 | 27 | 1003.2 |
| 20260508171004 | 66 | 264 | 5.2 | 10.4 | 0.00 | 0.00 | 0.00 | 28 | 1003.2 |
| 20260508170504 | 65 | 285 | 4.3 | 11.3 | 0.00 | 0.00 | 0.00 | 29 | 1003.3 |
| 20260508170002 | 65 | 278 | 2.6 | 12.2 | 0.00 | 0.00 | 0.00 | 30 | 1003.4 |
| 20260508165502 | 65 | 232 | 4.3 | 20.0 | 0.00 | 0.00 | 0.00 | 30 | 1003.4 |
| 20260508165001 | 65 | 271 | 6.1 | 20.0 | 0.00 | 0.00 | 0.00 | 29 | 1003.6 |
| 20260508164602 | 65 | 294 | 5.2 | 14.8 | 0.00 | 0.00 | 0.00 | 30 | 1003.5 |
| 20260508164059 | 64 | 214 | 2.6 | 10.4 | 0.00 | 0.00 | 0.00 | 30 | 1003.7 |
| 20260508163559 | 64 | 194 | 4.3 | 13.0 | 0.00 | 0.00 | 0.00 | 31 | 1003.8 |
| 20260508163056 | 63 | 298 | 1.7 | 13.0 | 0.00 | 0.00 | 0.00 | 31 | 1003.8 |
| 20260508162555 | 63 | 250 | 4.3 | 9.6 | 0.00 | 0.00 | 0.00 | 32 | 1003.9 |
| 20260508162055 | 63 | 250 | 2.6 | 8.7 | 0.00 | 0.00 | 0.00 | 31 | 1003.9 |
| 20260508161553 | 63 | 220 | 4.3 | 9.6 | 0.00 | 0.00 | 0.00 | 30 | 1004.0 |
| 20260508161052 | 62 | 219 | 0.9 | 10.4 | 0.00 | 0.00 | 0.00 | 32 | 1004.0 |
| 20260508160551 | 62 | 220 | 6.1 | 10.4 | 0.00 | 0.00 | 0.00 | 32 | 1004.0 |
| 20260508160050 | 62 | 202 | 2.6 | 11.3 | 0.00 | 0.00 | 0.00 | 33 | 1004.0 |
| 20260508155549 | 62 | 218 | 5.2 | 11.3 | 0.00 | 0.00 | 0.00 | 31 | 1004.1 |
| 20260508155050 | 61 | 254 | 3.5 | 10.4 | 0.00 | 0.00 | 0.00 | 32 | 1004.1 |
| 20260508154606 | 61 | 261 | 1.7 | 7.8 | 0.00 | 0.00 | 0.00 | 34 | 1004.1 |
| 20260508154046 | 60 | 304 | 4.3 | 7.8 | 0.00 | 0.00 | 0.00 | 33 | 1004.2 |
| 20260508153545 | 60 | 234 | 2.6 | 7.8 | 0.00 | 0.00 | 0.00 | 34 | 1004.2 |
| 20260508153046 | 59 | 321 | 1.7 | 9.6 | 0.00 | 0.00 | 0.00 | 36 | 1004.2 |
| 20260508152543 | 59 | 175 | 5.2 | 10.4 | 0.00 | 0.00 | 0.00 | 34 | 1004.2 |
| 20260508152041 | 58 | 193 | 2.6 | 7.0 | 0.00 | 0.00 | 0.00 | 40 | 1004.2 |
| 20260508151640 | 57 | 208 | 4.3 | 7.0 | 0.00 | 0.00 | 0.00 | 39 | 1004.3 |
| 20260508151038 | 57 | 202 | 2.6 | 7.0 | 0.00 | 0.00 | 0.00 | 40 | 1004.3 |
| 20260508150538 | 56 | 220 | 1.7 | 8.7 | 0.00 | 0.00 | 0.00 | 40 | 1004.3 |
| 20260508150040 | 56 | 226 | 4.3 | 8.7 | 0.00 | 0.00 | 0.00 | 40 | 1004.5 |
| 20260508145537 | 56 | 216 | 3.5 | 11.3 | 0.00 | 0.00 | 0.00 | 41 | 1004.5 |
| 20260508145038 | 56 | 206 | 5.2 | 11.3 | 0.00 | 0.00 | 0.00 | 40 | 1004.6 |
| 20260508144539 | 56 | 205 | 6.1 | 9.6 | 0.00 | 0.00 | 0.00 | 40 | 1004.6 |
| 20260508144036 | 57 | 193 | 7.0 | 9.6 | 0.00 | 0.00 | 0.00 | 39 | 1004.6 |
| 20260508143538 | 57 | 224 | 2.6 | 10.4 | 0.00 | 0.00 | 0.00 | 39 | 1004.6 |
| 20260508143034 | 56 | 211 | 5.2 | 10.4 | 0.00 | 0.00 | 0.00 | 39 | 1004.6 |
| 20260508142534 | 56 | 185 | 5.2 | 8.7 | 0.00 | 0.00 | 0.00 | 39 | 1004.5 |
| 20260508142034 | 55 | 216 | 2.6 | 7.8 | 0.00 | 0.00 | 0.00 | 41 | 1004.5 |
| 20260508141533 | 55 | 215 | 4.3 | 7.8 | 0.00 | 0.00 | 0.00 | 41 | 1004.6 |
| 20260508141028 | 54 | 205 | 2.6 | 7.8 | 0.00 | 0.00 | 0.00 | 41 | 1004.7 |
| 20260508140528 | 54 | 183 | 3.5 | 7.8 | 0.00 | 0.00 | 0.00 | 41 | 1004.8 |
| 20260508140025 | 53 | 215 | 3.5 | 7.8 | 0.00 | 0.00 | 0.00 | 41 | 1004.8 |
| 20260508135524 | 53 | 180 | 5.2 | 8.7 | 0.00 | 0.00 | 0.00 | 41 | 1004.8 |
| 20260508135022 | 52 | 209 | 4.3 | 7.8 | 0.00 | 0.00 | 0.00 | 43 | 1004.9 |
| 20260508134521 | 52 | 187 | 3.5 | 7.8 | 0.00 | 0.00 | 0.00 | 44 | 1005.1 |
| 20260508134019 | 52 | 214 | 3.5 | 7.0 | 0.00 | 0.00 | 0.00 | 44 | 1005.2 |
| 20260508133518 | 52 | 198 | 2.6 | 6.1 | 0.00 | 0.00 | 0.00 | 45 | 1005.2 |
| 20260508133024 | 51 | 195 | 1.7 | 6.1 | 0.00 | 0.00 | 0.00 | 49 | 1005.2 |
| 20260508132517 | 50 | 212 | 1.7 | 5.2 | 0.00 | 0.00 | 0.00 | 50 | 1005.3 |
| 20260508132014 | 49 | 179 | 1.7 | 5.2 | 0.00 | 0.00 | 0.00 | 51 | 1005.3 |
| 20260508131512 | 49 | 211 | 1.7 | 3.5 | 0.00 | 0.00 | 0.00 | 52 | 1005.4 |
| 20260508131010 | 48 | 208 | 1.7 | 4.3 | 0.00 | 0.00 | 0.00 | 53 | 1005.4 |
| 20260508130508 | 47 | 194 | 1.7 | 5.2 | 0.00 | 0.00 | 0.00 | 53 | 1005.3 |
| 20260508130011 | 46 | 192 | 2.6 | 4.3 | 0.00 | 0.00 | 0.00 | 54 | 1005.5 |
| 20260508125506 | 45 | 179 | 0.9 | 5.2 | 0.00 | 0.00 | 0.00 | 55 | 1005.4 |
| 20260508125004 | 45 | 208 | 1.7 | 5.2 | 0.00 | 0.00 | 0.00 | 55 | 1005.5 |
| 20260508124504 | 45 | 169 | 1.7 | 4.3 | 0.00 | 0.00 | 0.00 | 56 | 1005.5 |
| 20260508124003 | 44 | 161 | 1.7 | 4.3 | 0.00 | 0.00 | 0.00 | 56 | 1005.6 |
| 20260508123501 | 44 | 178 | 0.9 | 2.6 | 0.00 | 0.00 | 0.00 | 57 | 1005.6 |
| 20260508123002 | 43 | 178 | 0.9 | 4.3 | 0.00 | 0.00 | 0.00 | 58 | 1005.6 |
| 20260508122501 | 42 | 175 | 0.9 | 4.3 | 0.00 | 0.00 | 0.00 | 59 | 1005.6 |
| 20260508122059 | 42 | 178 | 0.9 | 5.2 | 0.00 | 0.00 | 0.00 | 59 | 1005.5 |
| 20260508121559 | 42 | 188 | 0.9 | 3.5 | 0.00 | 0.00 | 0.00 | 59 | 1005.6 |
| 20260508121057 | 41 | 190 | 1.7 | 3.5 | 0.00 | 0.00 | 0.00 | 59 | 1005.6 |
| 20260508120556 | 41 | 185 | 0.9 | 3.5 | 0.00 | 0.00 | 0.00 | 59 | 1005.6 |
| 20260508120058 | 41 | 182 | 0.9 | 3.5 | 0.00 | 0.00 | 0.00 | 60 | 1005.7 |
| 20260508115556 | 40 | 182 | 0.9 | 3.5 | 0.00 | 0.00 | 0.00 | 61 | 1005.8 |
| 20260508115057 | 40 | 182 | 0.9 | 3.5 | 0.00 | 0.00 | 0.00 | 61 | 1005.6 |
| 20260508114554 | 39 | 180 | 1.7 | 4.3 | 0.00 | 0.00 | 0.00 | 61 | 1005.7 |
| 20260508114052 | 39 | 187 | 0.9 | 4.3 | 0.00 | 0.00 | 0.00 | 61 | 1005.8 |
| 20260508113551 | 39 | 191 | 2.6 | 4.3 | 0.00 | 0.00 | 0.00 | 61 | 1005.8 |
| 20260508113051 | 39 | 187 | 1.7 | 5.2 | 0.00 | 0.00 | 0.00 | 61 | 1005.8 |
| 20260508112550 | 39 | 177 | 1.7 | 4.3 | 0.00 | 0.00 | 0.00 | 61 | 1005.8 |
| 20260508112050 | 39 | 165 | 1.7 | 5.2 | 0.00 | 0.00 | 0.00 | 62 | 1005.8 |
| 20260508111552 | 38 | 171 | 1.7 | 4.3 | 0.00 | 0.00 | 0.00 | 62 | 1005.8 |
| 20260508111048 | 38 | 171 | 0.9 | 2.6 | 0.00 | 0.00 | 0.00 | 62 | 1005.9 |
| 20260508110547 | 38 | 169 | 0.0 | 2.6 | 0.00 | 0.00 | 0.00 | 62 | 1005.9 |
| 20260508110047 | 38 | 169 | 0.0 | 1.7 | 0.00 | 0.00 | 0.00 | 62 | 1006.1 |
| 20260508105548 | 38 | 169 | 0.0 | 1.7 | 0.00 | 0.00 | 0.00 | 61 | 1006.0 |
| 20260508105046 | 38 | 169 | 0.0 | 2.6 | 0.00 | 0.00 | 0.00 | 61 | 1006.1 |
| 20260508104546 | 39 | 169 | 0.9 | 4.3 | 0.00 | 0.00 | 0.00 | 61 | 1006.0 |
| 20260508104045 | 39 | 171 | 2.6 | 4.3 | 0.00 | 0.00 | 0.00 | 60 | 1006.0 |
| 20260508103545 | 39 | 160 | 1.7 | 4.3 | 0.00 | 0.00 | 0.00 | 60 | 1006.1 |
| 20260508103044 | 39 | 185 | 1.7 | 3.5 | 0.00 | 0.00 | 0.00 | 61 | 1006.1 |
| 20260508102542 | 39 | 169 | 1.7 | 4.3 | 0.00 | 0.00 | 0.00 | 62 | 1006.1 |
| 20260508102045 | 39 | 162 | 1.7 | 2.6 | 0.00 | 0.00 | 0.00 | 61 | 1006.2 |
| 20260508101542 | 39 | 161 | 0.0 | 1.7 | 0.00 | 0.00 | 0.00 | 62 | 1006.2 |
| 20260508101041 | 39 | 161 | 0.9 | 2.6 | 0.00 | 0.00 | 0.00 | 63 | 1006.2 |
| 20260508100540 | 39 | 161 | 0.9 | 4.3 | 0.00 | 0.00 | 0.00 | 63 | 1006.2 |
| 20260508100051 | 39 | 159 | 1.7 | 4.3 | 0.00 | 0.00 | 0.00 | 63 | 1006.4 |
| 20260508095540 | 39 | 122 | 0.9 | 2.6 | 0.00 | 0.00 | 0.00 | 64 | 1006.4 |
| 20260508095036 | 39 | 98 | 0.9 | 2.6 | 0.00 | 0.00 | 0.00 | 65 | 1006.4 |
| 20260508094539 | 40 | 53 | 0.0 | 1.7 | 0.00 | 0.00 | 0.00 | 65 | 1006.5 |
| 20260508094035 | 40 | 53 | 0.9 | 2.6 | 0.00 | 0.00 | 0.00 | 65 | 1006.5 |
| 20260508093534 | 40 | 53 | 0.9 | 2.6 | 0.00 | 0.00 | 0.00 | 65 | 1006.6 |
| 20260508093034 | 40 | 351 | 0.0 | 0.0 | 0.00 | 0.00 | 0.00 | 65 | 1006.6 |
| 20260508092534 | 40 | 355 | 0.0 | 0.0 | 0.00 | 0.00 | 0.00 | 64 | 1006.6 |
| 20260508092032 | 40 | 355 | 0.0 | 0.0 | 0.00 | 0.00 | 0.00 | 63 | 1006.7 |
| 20260508091533 | 40 | 355 | 0.0 | 0.0 | 0.00 | 0.00 | 0.00 | 64 | 1006.6 |
| 20260508091034 | 40 | 355 | 0.0 | 0.0 | 0.00 | 0.00 | 0.00 | 66 | 1006.7 |
| 20260508090535 | 39 | 355 | 0.0 | 0.0 | 0.00 | 0.00 | 0.00 | 65 | 1006.8 |
| 20260508090048 | 39 | 355 | 0.0 | 0.0 | 0.00 | 0.00 | 0.00 | 66 | 1006.8 |
| 20260508085531 | 38 | 355 | 0.0 | 0.0 | 0.00 | 0.00 | 0.00 | 65 | 1006.8 |
| 20260508085031 | 38 | 355 | 0.0 | 0.0 | 0.00 | 0.00 | 0.00 | 65 | 1006.8 |
| 20260508084531 | 38 | 355 | 0.0 | 0.0 | 0.00 | 0.00 | 0.00 | 65 | 1006.8 |
| 20260508084030 | 38 | 355 | 0.0 | 0.0 | 0.00 | 0.00 | 0.00 | 65 | 1006.8 |
| 20260508083533 | 38 | 355 | 0.0 | 0.0 | 0.00 | 0.00 | 0.00 | 65 | 1006.8 |
| 20260508083030 | 38 | 355 | 0.0 | 0.0 | 0.00 | 0.00 | 0.00 | 65 | 1006.8 |
| 20260508082528 | 38 | 355 | 0.0 | 0.0 | 0.00 | 0.00 | 0.00 | 64 | 1006.8 |
| 20260508082028 | 38 | 355 | 0.0 | 0.0 | 0.00 | 0.00 | 0.00 | 63 | 1006.7 |
| 20260508081532 | 39 | 355 | 0.0 | 0.0 | 0.00 | 0.00 | 0.00 | 62 | 1006.8 |
| 20260508081027 | 39 | 355 | 0.0 | 0.9 | 0.00 | 0.00 | 0.00 | 62 | 1006.8 |
| 20260508080531 | 39 | 355 | 0.0 | 0.9 | 0.00 | 0.00 | 0.00 | 61 | 1007.0 |
| 20260508080025 | 39 | 355 | 0.0 | 0.9 | 0.00 | 0.00 | 0.00 | 60 | 1007.0 |
| 20260508075525 | 40 | 355 | 0.0 | 0.9 | 0.00 | 0.00 | 0.00 | 60 | 1007.0 |
| 20260508075025 | 40 | 355 | 0.0 | 1.7 | 0.00 | 0.00 | 0.00 | 60 | 1007.0 |
| 20260508074526 | 40 | 355 | 0.9 | 1.7 | 0.00 | 0.00 | 0.00 | 60 | 1007.0 |
| 20260508074023 | 40 | 355 | 0.0 | 1.7 | 0.00 | 0.00 | 0.00 | 59 | 1007.1 |
| 20260508073523 | 40 | 355 | 0.0 | 0.9 | 0.00 | 0.00 | 0.00 | 59 | 1007.0 |
| 20260508073025 | 40 | 355 | 0.0 | 1.7 | 0.00 | 0.00 | 0.00 | 59 | 1007.1 |
| 20260508072521 | 40 | 355 | 0.9 | 1.7 | 0.00 | 0.00 | 0.00 | 59 | 1007.1 |
| 20260508072021 | 40 | 355 | 0.9 | 1.7 | 0.00 | 0.00 | 0.00 | 60 | 1007.1 |
| 20260508071526 | 40 | 355 | 0.0 | 2.6 | 0.00 | 0.00 | 0.00 | 60 | 1007.2 |
| 20260508071022 | 40 | 355 | 0.9 | 2.6 | 0.00 | 0.00 | 0.00 | 60 | 1007.2 |
| 20260508070520 | 40 | 355 | 0.0 | 2.6 | 0.00 | 0.00 | 0.00 | 61 | 1007.3 |
| 20260508070020 | 40 | 355 | 0.0 | 1.7 | 0.00 | 0.00 | 0.00 | 61 | 1007.3 |
| 20260508065520 | 40 | 355 | 0.0 | 1.7 | 0.00 | 0.00 | 0.00 | 61 | 1007.3 |
| 20260508065023 | 40 | 355 | 0.9 | 1.7 | 0.00 | 0.00 | 0.00 | 61 | 1007.3 |
| 20260508064519 | 40 | 19 | 0.0 | 0.0 | 0.00 | 0.00 | 0.00 | 57 | 1007.3 |
| 20260508064017 | 39 | 19 | 0.0 | 0.0 | 0.00 | 0.00 | 0.00 | 57 | 1007.3 |
| 20260508063519 | 39 | 19 | 0.0 | 0.0 | 0.00 | 0.00 | 0.00 | 57 | 1007.2 |
| 20260508063016 | 39 | 19 | 0.0 | 0.0 | 0.00 | 0.00 | 0.00 | 56 | 1007.3 |
| 20260508062514 | 40 | 19 | 0.0 | 0.9 | 0.00 | 0.00 | 0.00 | 55 | 1007.2 |
| 20260508062014 | 40 | 21 | 0.0 | 0.9 | 0.00 | 0.00 | 0.00 | 55 | 1007.3 |
| 20260508061514 | 40 | 26 | 0.0 | 0.0 | 0.00 | 0.00 | 0.00 | 54 | 1007.2 |
| 20260508061014 | 40 | 26 | 0.0 | 0.0 | 0.00 | 0.00 | 0.00 | 54 | 1007.3 |
| 20260508060514 | 40 | 26 | 0.0 | 0.0 | 0.00 | 0.00 | 0.00 | 55 | 1007.3 |
| 20260508060013 | 40 | 26 | 0.0 | 0.0 | 0.00 | 0.00 | 0.00 | 55 | 1007.3 |
| 20260508055512 | 40 | 26 | 0.0 | 0.0 | 0.00 | 0.00 | 0.00 | 54 | 1007.3 |
| 20260508055013 | 40 | 26 | 0.0 | 0.0 | 0.00 | 0.00 | 0.00 | 54 | 1007.3 |
| 20260508054511 | 40 | 26 | 0.0 | 0.0 | 0.00 | 0.00 | 0.00 | 53 | 1007.3 |
| 20260508054013 | 41 | 26 | 0.0 | 0.0 | 0.00 | 0.00 | 0.00 | 53 | 1007.3 |
| 20260508053508 | 41 | 26 | 0.0 | 0.0 | 0.00 | 0.00 | 0.00 | 52 | 1007.3 |
| 20260508053011 | 41 | 26 | 0.0 | 0.0 | 0.00 | 0.00 | 0.00 | 52 | 1007.3 |
| 20260508052506 | 42 | 26 | 0.0 | 0.0 | 0.00 | 0.00 | 0.00 | 51 | 1007.3 |
| 20260508052005 | 42 | 26 | 0.0 | 0.0 | 0.00 | 0.00 | 0.00 | 50 | 1007.3 |
| 20260508051504 | 43 | 26 | 0.0 | 0.0 | 0.00 | 0.00 | 0.00 | 50 | 1007.3 |
| 20260508051005 | 43 | 26 | 0.0 | 0.0 | 0.00 | 0.00 | 0.00 | 49 | 1007.3 |
| 20260508050501 | 44 | 26 | 0.0 | 0.0 | 0.00 | 0.00 | 0.00 | 50 | 1007.3 |
| 20260508050104 | 44 | 26 | 0.0 | 0.0 | 0.00 | 0.00 | 0.00 | 50 | 1007.3 |
| 20260508045559 | 44 | 24 | 0.0 | 0.9 | 0.00 | 0.00 | 0.00 | 51 | 1007.3 |
| 20260508045100 | 45 | 23 | 0.0 | 0.9 | 0.00 | 0.00 | 0.00 | 49 | 1007.3 |
| 20260508044601 | 45 | 23 | 0.0 | 0.9 | 0.00 | 0.00 | 0.00 | 48 | 1007.3 |
| 20260508044059 | 46 | 23 | 0.0 | 0.0 | 0.00 | 0.00 | 0.00 | 47 | 1007.3 |
| 20260508043602 | 46 | 23 | 0.0 | 0.9 | 0.00 | 0.00 | 0.00 | 46 | 1007.3 |
| 20260508043059 | 47 | 23 | 0.0 | 0.9 | 0.00 | 0.00 | 0.00 | 45 | 1007.3 |